{"data":{"norad_id":43773,"epoch":"2026-05-25T02:25:17.927616Z","epoch_age_seconds":66029,"freshness":"FRESH","line1":"1 43773U 18099R   26145.10090194  .00003658  00000+0  20961-3 0  9995","line2":"2 43773  97.3984 188.3575 0011986  71.7505 288.5030 15.13152228409002","mean_motion":15.13152228,"eccentricity":0.0011986,"inclination_deg":97.3984,"raan_deg":188.3575,"arg_perigee_deg":71.7505,"mean_anomaly_deg":288.503,"bstar":0.00020961,"rev_number":40900,"period_min":95.165573783896,"perigee_km":518.31793494936,"apogee_km":534.86995597182,"semimajor_km":6904.7309454606,"source":"CELESTRAK","updated_at":"2026-05-25T13:37:55.894801Z"}}